This is the latest recevied weather packets stored in our database for station/object KE8URB. If no packets are shown the sender has not sent any weather packets the latest 10 day(s).
| Time | Temp. | Humidity | Pressure | Rain* | Wind** | Luminosity | Snow |
|---|---|---|---|---|---|---|---|
| 1787689522 | 24.44° C | 64% | 1019.4 hPa | 0 mm | - | 150 W/m² | - |
| 1787689218 | 24.44° C | 65% | 1019.4 hPa | 0 mm | - | 92 W/m² | - |
| 1787688913 | 24.44° C | 65% | 1019.5 hPa | 0 mm | - | 83 W/m² | - |
| 1787688609 | 25° C | 63% | 1019.2 hPa | 0 mm | - | 129 W/m² | - |
| 1787688309 | 25.56° C | 58% | 1019.3 hPa | 0 mm | - | 458 W/m² | - |
| 1787688004 | 25.56° C | 61% | 1019.4 hPa | 0 mm | - | 475 W/m² | - |
| 1787687699 | 25° C | 62% | 1019.4 hPa | 0 mm | - | 488 W/m² | - |
| 1787687395 | 25.56° C | 63% | 1019.3 hPa | 0 mm | - | 502 W/m² | - |
| 1787687090 | 25.56° C | 61% | 1019.5 hPa | 0 mm | - | 528 W/m² | - |
| 1787686786 | 25.56° C | 61% | 1019.3 hPa | 0 mm | - | 482 W/m² | - |
| 1787686481 | 25° C | 61% | 1019.6 hPa | 0 mm | - | 139 W/m² | - |
| 1787686177 | 25° C | 64% | 1019.7 hPa | 0 mm | - | 275 W/m² | - |
| 1787685872 | 25° C | 68% | 1019.6 hPa | 0 mm | - | 579 W/m² | - |
| 1787685572 | 25.56° C | 62% | 1019.7 hPa | 0 mm | - | 572 W/m² | - |
| 1787685267 | 25° C | 65% | 1019.8 hPa | 0 mm | - | 615 W/m² | - |
| 1787684961 | 25° C | 62% | 1019.9 hPa | 0 mm | - | 507 W/m² | - |
| 1787684658 | 25° C | 63% | 1019.8 hPa | 0 mm | - | 611 W/m² | - |
| 1787684356 | 24.44° C | 62% | 1020.1 hPa | 0 mm | - | 560 W/m² | - |
| 1787684052 | 25° C | 65% | 1020 hPa | 0 mm | - | 548 W/m² | - |
| 1787683751 | 24.44° C | 63% | 1020 hPa | 0 mm | - | 603 W/m² | - |
| 1787683446 | 25° C | 71% | 1019.8 hPa | 0 mm | - | 598 W/m² | - |
| 1787683142 | 24.44° C | 63% | 1020 hPa | 0 mm | - | 125 W/m² | - |
| 1787682839 | 24.44° C | 64% | 1020.1 hPa | 0 mm | - | 111 W/m² | - |
| 1787682535 | 24.44° C | 64% | 1020.1 hPa | 0 mm | - | 149 W/m² | - |
| 1787682230 | 24.44° C | 62% | 1020.3 hPa | 0 mm | - | 98 W/m² | - |
* Rain latest hour (hover to see other rain measurements)
** Current wind speed in m/s (hover to see current wind gust speed)